Regional Weather Roundup
Issued by NWS Green Bay, WI

Home | Current Version | Previous Version | Graphics & Text | Print | Product List | Glossary Off
Versions: 1 2 3 4 5 6 7 8 9 10 11 12 13 14 15 16 17 18 19 20 21 22 23 24 25 26 27 28 29 30 31 32 33 34 35 36 37 38 39 40 41 42 43 44 45 46 47 48 49 50

000
ASUS43 KGRB 280610
RWRGRB

NORTH-CENTRAL AND NORTHEAST WISCONSIN REGIONAL WEATHER ROUNDUP
NATIONAL WEATHER SERVICE GREEN BAY WI
100 AM CDT SAT MAR 28 2015

WIZ005-009-010>012-018-019-280700-
NORTH CENTRAL WISCONSIN

CITY           SKY/WX    TMP DP  RH WIND       PRES   REMARKS
IRONWOOD       CLEAR     10   9  92 CALM      30.16S
MANITOWISH WTR CLEAR     11   9  91 CALM      30.15F
ARBOR VITAE    CLEAR     11   5  74 CALM      30.16S
EAGLE RIVER    CLEAR      7   2  80 CALM      30.15S
LAND O LAKES     N/A      2  -2  84 CALM      30.16F
RHINELANDER    CLEAR     13   0  56 CALM      30.16S
PHILLIPS         N/A     16   9  72 CALM      30.16S
ANTIGO         CLEAR     15   8  72 SE5       30.18R WCI   8
TOMAHAWK       CLEAR      8   5  85 CALM      30.17S
MERRILL        CLEAR     11   9  88 CALM      30.18R
$$

WIZ013-073-280700-
NORTHEAST WISCONSIN

CITY           SKY/WX    TMP DP  RH WIND       PRES   REMARKS
IRON MOUNTAIN  CLEAR      7  -2  66 CALM      30.19S
MARINETTE      CLEAR     12   9  85 CALM      30.24S
OCONTO         CLEAR     16   7  65 CALM      30.25S
$$

WIZ017-030-035>037-045-280700-
CENTRAL WISCONSIN

CITY           SKY/WX    TMP DP  RH WIND       PRES   REMARKS
MEDFORD        CLEAR     18  12  77 S3        30.16S
WAUSAU         CLEAR     18   9  68 E8        30.17R WCI   8
MOSINEE        CLEAR     21  10  63 CALM      30.19R
MARSHFIELD     CLEAR     21  14  74 CALM      30.17S
WISC RAPIDS    CLEAR     16   9  74 CALM      30.20S
STEVENS POINT  CLEAR     14   8  79 CALM      30.20R
WAUPACA        CLEAR     21  14  72 CALM      30.22S
SHAWANO        CLEAR     18  12  76 CALM      30.24R
CLINTONVILLE   CLEAR     19  12  73 CALM      30.23R
$$

WIZ038-039-048-051-280700-
FOX VALLEY

CITY           SKY/WX    TMP DP  RH WIND       PRES   REMARKS
NWS GREEN BAY  CLEAR     20  12  71 CALM      30.24R
APPLETON       CLEAR     21  12  68 CALM      30.22S
OSHKOSH        CLEAR     19  12  74 CALM      30.22S
FOND DU LAC    CLEAR     17  11  77 CALM      30.22S
$$

WIZ022-050-052-280700-
EAST CENTRAL WISCONSIN

CITY           SKY/WX    TMP DP  RH WIND       PRES   REMARKS
STURGEON BAY   CLEAR     16   3  57 N5        30.25S WCI   9
MANITOWOC      CLEAR     17  14  88 CALM      30.24S
SHEBOYGAN      CLEAR     17  13  84 CALM      30.23R
$$

LMZ563-521-522-541>543-280700-
LAKESHORE

STATION/POSITION TIME  TEMP    WIND        PRES    VSBY  WAVE
                       AIR SEA DIR/SP/G                  HT/PER
                 (UTC) (F)     (DEG/KT/KT) (MB)    (MI)  (FT/S)
SHEBOYGAN LKSHOR 0600   25      30/  8/ 10 1025.0R
KEWAUNEE LKSHORE 0600   19     310/  2/  5 1023.0S
NORTHPORT PIER   0600   18     360/  6/  8 1024.4R
SISTER BAY LKSHO 0500   15        CALM       N/A
CHAMBERS ISLAND  0600   17      60/  4/  5 1024.4S
MENOMINEE LKSHOR 0600   18      10/  4     1025.0S
$$



USA.gov is the U.S. government's official web portal to all federal, state and local government web resources and services.